FW9225 Weather Reports


time (UTC)temp
C
wind
direction
speed
KPH
gust
KPH
rain 1hr
cm
rain 24hr
cm
rain mn
cm
humidity
%
barometer
mb
20260506183055 16 67 3.2 17.7 0.00 0.41 0.41 88 1008.1
20260506181539 16 114 4.8 17.7 0.00 0.41 0.41 89 1008.3
20260506180049 16 81 6.4 17.7 0.00 0.41 0.41 89 1008.2
20260506174542 16 77 3.2 30.6 0.00 0.41 0.41 89 1008.3
20260506173050 16 110 6.4 19.3 0.03 0.41 0.41 89 1008.3
20260506171541 16 91 6.4 19.3 0.03 0.41 0.41 89 1008.3
20260506170057 16 146 4.8 20.9 0.08 0.41 0.41 90 1008.6
20260506164542 16 107 4.8 22.5 0.13 0.41 0.41 90 1008.5
20260506163044 16 342 1.6 20.9 0.13 0.38 0.38 90 1008.6
20260506161542 16 115 1.6 17.7 0.18 0.38 0.38 90 1008.6
20260506160042 16 110 3.2 16.1 0.20 0.33 0.33 89 1009.1
20260506154541 16 103 1.6 11.3 0.20 0.28 0.28 89 1009.8
20260506153044 16 0 1.6 22.5 0.18 0.23 0.23 88 1009.9
20260506151544 16 118 6.4 17.7 0.20 0.20 0.20 86 1009.7
20260506150040 16 0 3.2 14.5 0.13 0.13 0.13 85 1009.4
20260506144550 16 86 3.2 17.7 0.08 0.08 0.08 84 1009.7
20260506143035 16 39 4.8 16.1 0.05 0.05 0.05 81 1009.6
20260506141541 17 113 4.8 16.1 0.00 0.00 0.00 78 1009.8
20260506140045 18 79 6.4 29.0 0.00 0.00 0.00 75 1009.7
20260506134541 18 101 4.8 14.5 0.00 0.00 0.00 74 1009.5
20260506133040 18 93 4.8 16.1 0.00 0.00 0.00 75 1009.3
20260506131549 18 129 6.4 16.1 0.00 0.00 0.00 75 1009.5
20260506130049 18 71 4.8 25.7 0.00 0.00 0.00 75 1009.7
20260506124538 18 77 4.8 22.5 0.00 0.00 0.00 74 1009.9
20260506123038 18 54 8.0 27.4 0.00 0.00 0.00 74 1009.6
20260506121538 18 112 3.2 19.3 0.00 0.00 0.00 75 1009.6
20260506120050 18 42 4.8 14.5 0.00 0.00 0.00 75 1009.3
20260506114542 18 56 6.4 17.7 0.00 0.00 0.00 75 1009.5
20260506113052 17 342 4.8 17.7 0.00 0.00 0.00 76 1009.3
20260506111539 17 140 3.2 17.7 0.00 0.00 0.00 76 1009.3
20260506110035 17 141 4.8 17.7 0.00 0.00 0.00 76 1009.2
20260506104543 17 53 3.2 16.1 0.00 0.00 0.00 77 1009.0
20260506103048 17 51 3.2 14.5 0.00 0.00 0.00 77 1009.1
20260506101539 17 138 1.6 11.3 0.00 0.00 0.00 77 1008.9
20260506100040 17 109 3.2 20.9 0.00 0.00 0.00 76 1008.8
20260506094536 17 107 3.2 16.1 0.00 0.00 0.00 76 1009.0
20260506093042 17 112 0.0 14.5 0.00 0.00 0.00 75 1009.1
20260506091542 18 84 1.6 16.1 0.00 0.00 0.00 75 1009.0
20260506090047 18 77 0.0 16.1 0.00 0.00 0.00 74 1009.1
20260506084553 18 115 4.8 20.9 0.00 0.00 0.00 74 1009.2
20260506083037 18 58 4.8 12.9 0.00 0.00 0.00 75 1009.1
20260506081543 18 53 1.6 14.5 0.00 0.00 0.00 75 1009.3
20260506073048 18 112 4.8 17.7 0.00 0.00 0.00 75 1009.4
20260506071559 18 58 1.6 14.5 0.00 0.00 0.00 74 1009.5
20260506061553 19 342 4.8 14.5 0.00 0.00 0.00 72 1009.8
20260506044544 18 115 1.6 11.3 0.00 0.00 0.00 69 1010.3
20260506043042 18 0 3.2 16.1 0.00 0.00 0.00 69 1010.3
20260506041542 18 120 3.2 14.5 0.00 0.00 0.00 68 1010.4
20260506040042 18 131 0.0 6.4 0.00 0.00 0.00 67 1010.3
20260506034550 19 0 1.6 8.0 0.00 0.00 0.00 66 1010.4
20260506033038 20 121 1.6 14.5 0.00 0.00 0.00 64 1010.1
20260506031547 20 113 1.6 11.3 0.00 0.00 0.00 62 1010.2
20260506030041 20 122 3.2 16.1 0.00 0.00 0.00 61 1010.2
20260506024553 20 115 1.6 14.5 0.00 0.00 0.00 59 1010.2
20260506023038 21 342 1.6 12.9 0.00 0.00 0.00 58 1010.3
20260506021547 21 342 1.6 9.7 0.00 0.00 0.00 56 1010.1
20260506020042 21 115 1.6 14.5 0.00 0.00 0.00 55 1010.1
20260506014541 22 109 1.6 16.1 0.00 0.00 0.00 54 1009.8
20260506013050 22 105 6.4 20.9 0.00 0.00 0.00 52 1009.6
20260506011538 22 342 3.2 19.3 0.00 0.00 0.00 51 1009.5
20260506010034 22 342 3.2 12.9 0.00 0.00 0.00 50 1009.4
20260506004540 22 342 3.2 19.3 0.00 0.00 0.00 49 1009.3
20260506003041 23 342 3.2 17.7 0.00 0.00 0.00 48 1009.3
20260506001542 23 342 4.8 17.7 0.00 0.00 0.00 47 1009.1
20260506000044 23 342 4.8 22.5 0.00 0.00 0.00 46 1009.0
20260505234538 24 108 3.2 19.3 0.00 0.00 0.00 43 1008.8
20260505233041 25 6 4.8 14.5 0.00 0.00 0.00 42 1008.7
20260505231559 25 73 1.6 11.3 0.00 0.00 0.00 41 1008.9
20260505230040 25 115 4.8 17.7 0.00 0.00 0.00 40 1008.7
20260505224539 26 342 6.4 24.1 0.00 0.00 0.00 39 1008.7
20260505223047 26 70 6.4 24.1 0.00 0.00 0.00 41 1008.7
20260505221539 26 111 6.4 27.4 0.00 0.00 0.00 40 1008.8
20260505220042 26 342 14.5 37.0 0.00 0.00 0.00 38 1008.8
20260505214600 27 109 8.0 22.5 0.00 0.00 0.00 38 1008.5
20260505213042 27 114 8.0 29.0 0.00 0.00 0.00 39 1008.6
20260505211543 27 103 8.0 25.7 0.00 0.00 0.00 37 1008.5
20260505210044 27 342 9.7 27.4 0.00 0.00 0.00 37 1008.5
20260505204549 27 44 6.4 25.7 0.00 0.00 0.00 37 1008.3
20260505203039 27 113 9.7 25.7 0.00 0.00 0.00 37 1008.4
20260505201543 27 342 6.4 24.1 0.00 0.00 0.00 37 1008.5
20260505200052 27 92 6.4 22.5 0.00 0.00 0.00 40 1008.6
20260505194538 27 342 9.7 30.6 0.00 0.00 0.00 38 1008.8
20260505193039 27 248 6.4 17.7 0.00 0.00 0.00 36 1009.0
20260505191544 26 68 8.0 27.4 0.00 0.00 0.00 38 1009.1
20260505190033 26 342 11.3 35.4 0.00 0.00 0.00 37 1009.2
20260505184542 27 342 6.4 27.4 0.00 0.00 0.00 38 1009.6